Location: Unspecified
(0.0000°N, 0.0000°E)
Time: 05:45:05
(UTC+00:00)

N. Korean satellite - Pass Details

Date: 23 November 2017
Orbit: 460 x 515 km, 97.2° (Epoch: 19 November)

Event Time Altitude Azimuth Distance (km) Brightness Sun altitude
Rises 18:27:40 0° 172° (S) 2,482 10.3 -9.6°
Reaches altitude 10° 18:29:42 10° 174° (S) 1,606 9.4 -10.1°
Maximum altitude 18:33:08 75° 259° (WSW) 481 6.7 -10.9°
Drops below altitude 10° 18:36:35 10° 345° (NNW) 1,611 9.1 -11.7°
Sets 18:38:37 0° 347° (NNW) 2,490 10.1 -12.2°
